This is the latest recevied weather packets stored in our database for station/object KC3AWA. If no packets are shown the sender has not sent any weather packets the latest 1 day(s).
| Time | Temp. | Humidity | Pressure | Rain* | Wind** | Luminosity | Snow |
|---|---|---|---|---|---|---|---|
| 1778115344 | 7.22° C | 64% | 1014.1 hPa | 0 mm | - | 0 W/m² | - |
| 1778115040 | 7.22° C | 64% | 1014.3 hPa | 0 mm | - | 0 W/m² | - |
| 1778114738 | 7.22° C | 64% | 1013.9 hPa | 0 mm | - | 0 W/m² | - |
| 1778114435 | 7.22° C | 63% | 1014.4 hPa | 0 mm | - | 0 W/m² | - |
| 1778114131 | 7.22° C | 62% | 1014.3 hPa | 0 mm | - | 0 W/m² | - |
| 1778113826 | 7.22° C | 62% | 1014.1 hPa | 0 mm | - | 0 W/m² | - |
| 1778113219 | 7.78° C | 62% | 1014.2 hPa | 0 mm | - | 2 W/m² | - |
| 1778112613 | 7.78° C | 58% | 1014.2 hPa | 0 mm | - | 3 W/m² | - |
| 1778112309 | 7.78° C | 61% | 1014.2 hPa | 0 mm | - | 6 W/m² | - |
| 1778108063 | 8.89° C | 52% | 1013.6 hPa | 0 mm | - | 30 W/m² | - |
| 1778107760 | 8.89° C | 55% | 1013.2 hPa | 0 mm | - | 28 W/m² | - |
| 1778106849 | 9.44° C | 53% | 1013.3 hPa | 0 mm | - | 39 W/m² | - |
| 1778102908 | 10° C | 53% | 1012.4 hPa | 0 mm | - | 118 W/m² | - |
| 1778101389 | 10.56° C | 51% | 1012.3 hPa | 0 mm | - | 115 W/m² | - |
| 1778100782 | 11.11° C | 55% | 1011.9 hPa | 0 mm | - | 173 W/m² | - |
| 1778100177 | 11.11° C | 54% | 1011.9 hPa | 0 mm | - | 329 W/m² | - |
| 1778097752 | 11.67° C | 54% | 1011.9 hPa | 0 mm | - | 153 W/m² | - |
| 1778097448 | 11.67° C | 55% | 1012.1 hPa | 0 mm | - | 208 W/m² | - |
| 1778097145 | 12.22° C | 54% | 1012 hPa | 0 mm | - | 245 W/m² | - |
| 1778094417 | 11.11° C | 68% | 1011.8 hPa | 0 mm | - | 89 W/m² | - |
| 1778092598 | 12.22° C | 65% | 1011.4 hPa | 0 mm | - | 152 W/m² | - |
| 1778090780 | 12.78° C | 68% | 1011.5 hPa | 0 mm | - | 381 W/m² | - |
| 1778086540 | 10.56° C | 79% | 1011 hPa | 0 mm | - | 126 W/m² | - |
| 1778086236 | 10.56° C | 77% | 1010.8 hPa | 0 mm | - | 133 W/m² | - |
| 1778085933 | 10.56° C | 77% | 1010.9 hPa | 0 mm | - | 296 W/m² | - |
* Rain latest hour (hover to see other rain measurements)
** Current wind speed in m/s (hover to see current wind gust speed)